Time,TemperatureF,DewpointF,PressureIn,WindDirection,WindDirectionDegrees,WindSpeedMPH,WindSpeedGustMPH,Humidity,HourlyPrecipIn,Conditions,Clouds,dailyrainin,SolarRadiationWatts/m^2,SoftwareType,DateUTC
2013-03-14 00:07:00,38.1,31.0,30.48,North,349,0.0,-999.0,76,-99.99,,,0.00,0,weatherlink.com 1.10,2013-03-14 05:07:00,
2013-03-14 00:22:00,37.9,31.0,30.48,North,349,0.0,-999.0,77,-99.99,,,0.00,0,weatherlink.com 1.10,2013-03-14 05:22:00,
2013-03-14 00:37:00,38.2,30.0,30.47,North,349,0.0,-999.0,72,-99.99,,,0.00,0,weatherlink.com 1.10,2013-03-14 05:37:00,
2013-03-14 00:52:00,37.4,29.0,30.47,North,349,0.0,-999.0,73,-99.99,,,0.00,0,weatherlink.com 1.10,2013-03-14 05:52:00,
2013-03-14 01:07:00,36.3,30.0,30.47,North,349,0.0,-999.0,77,-99.99,,,0.00,0,weatherlink.com 1.10,2013-03-14 06:07:00,
2013-03-14 01:22:00,35.3,29.0,30.47,North,349,0.0,-999.0,79,-99.99,,,0.00,0,weatherlink.com 1.10,2013-03-14 06:22:00,
2013-03-14 01:37:00,35.1,30.0,30.46,North,349,0.0,-999.0,80,-99.99,,,0.00,0,weatherlink.com 1.10,2013-03-14 06:37:00,
2013-03-14 01:52:00,34.6,30.0,30.46,North,349,0.0,-999.0,82,-99.99,,,0.00,0,weatherlink.com 1.10,2013-03-14 06:52:00,
2013-03-14 02:07:00,34.5,30.0,30.45,North,349,0.0,-999.0,83,-99.99,,,0.00,0,weatherlink.com 1.10,2013-03-14 07:07:00,
2013-03-14 02:22:00,34.6,30.0,30.45,North,349,0.0,-999.0,83,-99.99,,,0.00,0,weatherlink.com 1.10,2013-03-14 07:22:00,
2013-03-14 02:37:00,34.4,30.0,30.45,North,349,0.0,-999.0,84,-99.99,,,0.00,0,weatherlink.com 1.10,2013-03-14 07:37:00,
2013-03-14 02:52:00,34.6,30.0,30.45,North,349,0.0,-999.0,84,-99.99,,,0.00,0,weatherlink.com 1.10,2013-03-14 07:52:00,
2013-03-14 03:07:00,34.8,30.0,30.44,North,349,0.0,-999.0,83,-99.99,,,0.00,0,weatherlink.com 1.10,2013-03-14 08:07:00,
2013-03-14 03:22:00,34.4,30.0,30.46,North,349,0.0,-999.0,84,-99.99,,,0.00,0,weatherlink.com 1.10,2013-03-14 08:22:00,
2013-03-14 03:37:00,33.7,30.0,30.45,North,349,0.0,-999.0,85,-99.99,,,0.00,0,weatherlink.com 1.10,2013-03-14 08:37:00,
2013-03-14 03:52:00,33.5,30.0,30.44,North,349,0.0,-999.0,86,-99.99,,,0.00,0,weatherlink.com 1.10,2013-03-14 08:52:00,
2013-03-14 04:07:00,33.7,30.0,30.44,North,349,0.0,-999.0,86,-99.99,,,0.00,0,weatherlink.com 1.10,2013-03-14 09:07:00,
2013-03-14 04:22:00,33.5,30.0,30.44,North,349,0.0,-999.0,87,-99.99,,,0.00,0,weatherlink.com 1.10,2013-03-14 09:22:00,
2013-03-14 04:37:00,33.0,30.0,30.44,North,349,0.0,-999.0,87,-99.99,,,0.00,0,weatherlink.com 1.10,2013-03-14 09:37:00,
2013-03-14 04:52:00,32.8,29.0,30.43,North,349,0.0,-999.0,87,-99.99,,,0.00,0,weatherlink.com 1.10,2013-03-14 09:52:00,
2013-03-14 05:07:00,31.7,29.0,30.43,North,349,0.0,-999.0,88,-99.99,,,0.00,0,weatherlink.com 1.10,2013-03-14 10:07:00,
2013-03-14 05:22:00,31.6,29.0,30.42,North,349,0.0,-999.0,89,-99.99,,,0.00,0,weatherlink.com 1.10,2013-03-14 10:22:00,
2013-03-14 05:37:00,32.0,29.0,30.42,North,349,0.0,-999.0,90,-99.99,,,0.00,0,weatherlink.com 1.10,2013-03-14 10:37:00,
2013-03-14 05:52:00,32.6,30.0,30.43,North,349,0.0,-999.0,90,-99.99,,,0.00,0,weatherlink.com 1.10,2013-03-14 10:52:00,
2013-03-14 06:07:00,32.0,29.0,30.44,North,349,0.0,-999.0,90,-99.99,,,0.00,0,weatherlink.com 1.10,2013-03-14 11:07:00,
2013-03-14 06:22:00,31.5,29.0,30.43,North,349,0.0,-999.0,90,-99.99,,,0.00,0,weatherlink.com 1.10,2013-03-14 11:22:00,
2013-03-14 06:37:00,31.2,29.0,30.43,North,349,0.0,-999.0,91,-99.99,,,0.00,0,weatherlink.com 1.10,2013-03-14 11:37:00,
2013-03-14 06:52:00,31.4,29.0,30.43,North,349,0.0,-999.0,92,-99.99,,,0.00,0,weatherlink.com 1.10,2013-03-14 11:52:00,
2013-03-14 07:07:00,31.9,30.0,30.43,North,349,0.0,-999.0,91,-99.99,,,0.00,0,weatherlink.com 1.10,2013-03-14 12:07:00,
2013-03-14 07:22:00,32.3,30.0,30.43,North,349,0.0,-999.0,90,-99.99,,,0.00,0,weatherlink.com 1.10,2013-03-14 12:22:00,
2013-03-14 07:37:00,32.9,30.0,30.42,North,355,0.0,-999.0,90,-99.99,,,0.00,12,weatherlink.com 1.10,2013-03-14 12:37:00,
2013-03-14 07:52:00,32.7,30.0,30.42,North,355,0.0,-999.0,90,-99.99,,,0.00,25,weatherlink.com 1.10,2013-03-14 12:52:00,
2013-03-14 08:07:00,33.2,31.0,30.42,North,355,0.0,-999.0,90,-99.99,,,0.00,40,weatherlink.com 1.10,2013-03-14 13:07:00,
2013-03-14 08:22:00,33.9,31.0,30.43,North,355,0.0,-999.0,90,-99.99,,,0.00,51,weatherlink.com 1.10,2013-03-14 13:22:00,
2013-03-14 08:37:00,34.7,32.0,30.43,North,355,0.0,-999.0,89,-99.99,,,0.00,114,weatherlink.com 1.10,2013-03-14 13:37:00,
2013-03-14 08:52:00,36.2,32.0,30.42,North,355,1.0,-999.0,86,-99.99,,,0.00,109,weatherlink.com 1.10,2013-03-14 13:52:00,
2013-03-14 09:08:00,36.7,31.0,30.41,North,355,0.0,-999.0,81,-99.99,,,0.00,109,weatherlink.com 1.10,2013-03-14 14:08:00,
2013-03-14 09:23:00,37.8,30.0,30.41,North,355,0.0,-999.0,74,-99.99,,,0.00,318,weatherlink.com 1.10,2013-03-14 14:23:00,
2013-03-14 09:38:00,40.6,29.0,30.41,North,9,3.0,-999.0,63,-99.99,,,0.00,378,weatherlink.com 1.10,2013-03-14 14:38:00,
2013-03-14 09:53:00,43.4,29.0,30.40,North,9,2.0,-999.0,58,-99.99,,,0.00,422,weatherlink.com 1.10,2013-03-14 14:53:00,
2013-03-14 10:08:00,44.8,29.0,30.39,NE,43,0.0,-999.0,54,-99.99,,,0.00,415,weatherlink.com 1.10,2013-03-14 15:08:00,
2013-03-14 10:23:00,46.7,29.0,30.39,ENE,58,4.0,-999.0,51,-99.99,,,0.00,503,weatherlink.com 1.10,2013-03-14 15:23:00,
2013-03-14 10:38:00,48.8,31.0,30.38,ENE,58,2.0,-999.0,50,-99.99,,,0.00,550,weatherlink.com 1.10,2013-03-14 15:38:00,
2013-03-14 10:53:00,51.2,30.0,30.37,ENE,69,0.0,-999.0,44,-99.99,,,0.00,596,weatherlink.com 1.10,2013-03-14 15:53:00,
2013-03-14 11:09:00,53.3,31.0,30.36,East,84,0.0,-999.0,42,-99.99,,,0.00,636,weatherlink.com 1.10,2013-03-14 16:09:00,
2013-03-14 11:23:00,54.3,31.0,30.35,East,84,0.0,-999.0,41,-99.99,,,0.00,633,weatherlink.com 1.10,2013-03-14 16:23:00,
2013-03-14 11:38:00,56.2,31.0,30.35,East,84,4.0,-999.0,39,-99.99,,,0.00,691,weatherlink.com 1.10,2013-03-14 16:38:00,
2013-03-14 11:53:00,57.7,32.0,30.34,SE,128,0.0,-999.0,38,-99.99,,,0.00,719,weatherlink.com 1.10,2013-03-14 16:53:00,
2013-03-14 12:08:00,59.5,31.0,30.33,SSW,213,13.0,-999.0,34,-99.99,,,0.00,733,weatherlink.com 1.10,2013-03-14 17:08:00,
2013-03-14 12:23:00,60.0,31.0,30.32,SSW,196,7.0,-999.0,34,-99.99,,,0.00,749,weatherlink.com 1.10,2013-03-14 17:23:00,
2013-03-14 12:38:00,62.1,32.0,30.31,SSW,192,4.0,-999.0,33,-99.99,,,0.00,782,weatherlink.com 1.10,2013-03-14 17:38:00,
2013-03-14 12:54:00,63.8,34.0,30.29,South,185,4.0,-999.0,33,-99.99,,,0.00,802,weatherlink.com 1.10,2013-03-14 17:54:00,
2013-03-14 13:09:00,65.4,34.0,30.28,SW,236,12.0,-999.0,31,-99.99,,,0.00,800,weatherlink.com 1.10,2013-03-14 18:09:00,
2013-03-14 13:24:00,66.2,34.0,30.27,SW,219,3.0,-999.0,30,-99.99,,,0.00,798,weatherlink.com 1.10,2013-03-14 18:24:00,
2013-03-14 13:39:00,67.7,35.0,30.27,SW,217,7.0,-999.0,30,-99.99,,,0.00,772,weatherlink.com 1.10,2013-03-14 18:39:00,
2013-03-14 13:54:00,68.5,35.0,30.26,SSW,212,9.0,-999.0,29,-99.99,,,0.00,800,weatherlink.com 1.10,2013-03-14 18:54:00,
2013-03-14 14:09:00,69.2,36.0,30.25,SSW,212,9.0,-999.0,29,-99.99,,,0.00,786,weatherlink.com 1.10,2013-03-14 19:09:00,
2013-03-14 14:24:00,69.4,36.0,30.24,WSW,251,0.0,-999.0,29,-99.99,,,0.00,782,weatherlink.com 1.10,2013-03-14 19:24:00,
2013-03-14 14:39:00,70.2,36.0,30.23,SW,236,5.0,-999.0,29,-99.99,,,0.00,763,weatherlink.com 1.10,2013-03-14 19:39:00,
2013-03-14 14:54:00,70.6,36.0,30.23,SW,236,4.0,-999.0,28,-99.99,,,0.00,749,weatherlink.com 1.10,2013-03-14 19:54:00,
2013-03-14 15:09:00,70.9,36.0,30.22,WNW,289,6.0,-999.0,28,-99.99,,,0.00,754,weatherlink.com 1.10,2013-03-14 20:09:00,
2013-03-14 15:24:00,72.0,37.0,30.20,SSW,205,8.0,-999.0,28,-99.99,,,0.00,666,weatherlink.com 1.10,2013-03-14 20:24:00,
2013-03-14 15:39:00,72.1,38.0,30.19,WSW,238,5.0,-999.0,29,-99.99,,,0.00,689,weatherlink.com 1.10,2013-03-14 20:39:00,
2013-03-14 15:54:00,73.0,37.0,30.19,WSW,242,1.0,-999.0,27,-99.99,,,0.00,686,weatherlink.com 1.10,2013-03-14 20:54:00,
2013-03-14 16:09:00,73.3,37.0,30.19,SW,232,5.0,-999.0,27,-99.99,,,0.00,336,weatherlink.com 1.10,2013-03-14 21:09:00,
2013-03-14 16:24:00,72.2,38.0,30.19,WNW,285,0.0,-999.0,29,-99.99,,,0.00,306,weatherlink.com 1.10,2013-03-14 21:24:00,
2013-03-14 16:39:00,71.7,38.0,30.19,SW,216,6.0,-999.0,29,-99.99,,,0.00,418,weatherlink.com 1.10,2013-03-14 21:39:00,
2013-03-14 16:54:00,71.3,37.0,30.18,SW,216,8.0,-999.0,29,-99.99,,,0.00,373,weatherlink.com 1.10,2013-03-14 21:54:00,
2013-03-14 17:09:00,71.4,38.0,30.18,SW,236,7.0,-999.0,30,-99.99,,,0.00,345,weatherlink.com 1.10,2013-03-14 22:09:00,
2013-03-14 17:24:00,71.4,38.0,30.17,SW,223,1.0,-999.0,30,-99.99,,,0.00,302,weatherlink.com 1.10,2013-03-14 22:24:00,
2013-03-14 17:39:00,71.2,38.0,30.17,SSW,213,6.0,-999.0,30,-99.99,,,0.00,239,weatherlink.com 1.10,2013-03-14 22:39:00,
2013-03-14 17:54:00,70.6,38.0,30.17,SW,219,14.0,-999.0,30,-99.99,,,0.00,148,weatherlink.com 1.10,2013-03-14 22:54:00,
2013-03-14 18:09:00,69.6,37.0,30.18,WSW,238,10.0,-999.0,30,-99.99,,,0.00,120,weatherlink.com 1.10,2013-03-14 23:09:00,
2013-03-14 18:24:00,69.0,38.0,30.18,SW,221,0.0,-999.0,32,-99.99,,,0.00,70,weatherlink.com 1.10,2013-03-14 23:24:00,
2013-03-14 18:39:00,68.3,37.0,30.17,SW,232,5.0,-999.0,32,-99.99,,,0.00,35,weatherlink.com 1.10,2013-03-14 23:39:00,
2013-03-14 18:54:00,67.6,37.0,30.17,SW,223,6.0,-999.0,33,-99.99,,,0.00,21,weatherlink.com 1.10,2013-03-14 23:54:00,
2013-03-14 19:09:00,67.0,38.0,30.17,SW,217,5.0,-999.0,34,-99.99,,,0.00,7,weatherlink.com 1.10,2013-03-15 00:09:00,
2013-03-14 19:24:00,66.1,38.0,30.17,SSW,213,0.0,-999.0,35,-99.99,,,0.00,0,weatherlink.com 1.10,2013-03-15 00:24:00,
2013-03-14 19:39:00,65.3,37.0,30.18,SSW,213,4.0,-999.0,35,-99.99,,,0.00,0,weatherlink.com 1.10,2013-03-15 00:39:00,
2013-03-14 19:54:00,65.1,37.0,30.18,SSW,213,0.0,-999.0,36,-99.99,,,0.00,0,weatherlink.com 1.10,2013-03-15 00:54:00,
2013-03-14 20:09:00,64.6,38.0,30.18,SSW,213,0.0,-999.0,37,-99.99,,,0.00,0,weatherlink.com 1.10,2013-03-15 01:09:00,
2013-03-14 20:24:00,64.1,37.0,30.17,SSW,213,0.0,-999.0,37,-99.99,,,0.00,0,weatherlink.com 1.10,2013-03-15 01:24:00,
2013-03-14 20:39:00,64.0,37.0,30.17,SSW,213,0.0,-999.0,37,-99.99,,,0.00,0,weatherlink.com 1.10,2013-03-15 01:39:00,
2013-03-14 20:54:00,63.9,38.0,30.17,SSW,213,3.0,-999.0,38,-99.99,,,0.00,0,weatherlink.com 1.10,2013-03-15 01:54:00,
2013-03-14 21:09:00,63.8,38.0,30.17,SSW,213,0.0,-999.0,38,-99.99,,,0.00,0,weatherlink.com 1.10,2013-03-15 02:09:00,
2013-03-14 21:24:00,63.1,38.0,30.18,SSW,213,0.0,-999.0,39,-99.99,,,0.00,0,weatherlink.com 1.10,2013-03-15 02:24:00,
2013-03-14 21:39:00,62.6,38.0,30.17,SSW,213,0.0,-999.0,40,-99.99,,,0.00,0,weatherlink.com 1.10,2013-03-15 02:39:00,
2013-03-14 21:54:00,62.0,38.0,30.18,SSW,213,0.0,-999.0,41,-99.99,,,0.00,0,weatherlink.com 1.10,2013-03-15 02:54:00,
2013-03-14 22:09:00,61.8,39.0,30.18,SSW,213,1.0,-999.0,43,-99.99,,,0.00,0,weatherlink.com 1.10,2013-03-15 03:09:00,
2013-03-14 22:24:00,61.8,39.0,30.18,SSW,213,1.0,-999.0,43,-99.99,,,0.00,0,weatherlink.com 1.10,2013-03-15 03:24:00,
2013-03-14 22:39:00,61.1,39.0,30.18,SSW,213,5.0,-999.0,45,-99.99,,,0.00,0,weatherlink.com 1.10,2013-03-15 03:39:00,
2013-03-14 22:54:00,61.2,40.0,30.18,SSW,213,3.0,-999.0,45,-99.99,,,0.00,0,weatherlink.com 1.10,2013-03-15 03:54:00,
2013-03-14 23:09:00,60.8,40.0,30.18,SW,216,1.0,-999.0,46,-99.99,,,0.00,0,weatherlink.com 1.10,2013-03-15 04:09:00,
2013-03-14 23:24:00,60.4,40.0,30.18,SW,215,2.0,-999.0,47,-99.99,,,0.00,0,weatherlink.com 1.10,2013-03-15 04:24:00,
2013-03-14 23:39:00,60.4,40.0,30.18,SW,217,2.0,-999.0,48,-99.99,,,0.00,0,weatherlink.com 1.10,2013-03-15 04:39:00,
2013-03-14 23:55:00,60.3,40.0,30.17,SW,216,6.0,-999.0,48,-99.99,,,0.00,0,weatherlink.com 1.10,2013-03-15 04:55:00,